Regional Weather Roundup
Issued by NWS

Home | Current Version | Previous Version | Graphics & Text | Print | Product List | Glossary On
Versions: 1 2 3 4 5 6 7 8 9 10 11 12 13 14 15 16 17 18 19 20 21 22 23 24 25 26 27 28 29 30 31 32 33 34 35 36 37 38 39 40 41 42 43 44 45 46 47 48 49 50
000
ASUS45 KTFX 051119
RWRMT
MONTANA HOURLY WEATHER ROUNDUP
NATIONAL WEATHER SERVICE GREAT FALLS MT
419 AM MST THU MAR 5 2015

NOTE: "FAIR" INDICATES FEW OR NO CLOUDS BELOW 12000 FEET WITH NO
SIGNIFICANT WEATHER AND/OR OBSTRUCTIONS TO VISIBILITY.

* THESE STATIONS ARE NOT UNDER NWS QUALITY CONTROL. THEY DO NOT
   REPORT WEATHER SUCH AS PRECIPITATION OR FOG.

MTZ001>007-043-051200-
WEST OF THE DIVIDE
CITY           SKY/WX    TMP DP  RH WIND       PRES   REMARKS
KALISPELL      PTCLDY    18  14  84 CALM      30.24S
MISSOULA       PTCLDY    19  12  74 CALM      30.28F
BUTTE          CLEAR     18   9  68 NW6       30.17S WCI  10
MULLAN PASS    PTCLDY    25   0  33 SW8       30.16S WCI  16
* ANACONDA     CLEAR     19   9  65 N3         N/A
* ESSEX        N/A       11   7  84 N/A        N/A
* EUREKA APT   CLEAR     16   9  74 CALM      30.28S
* HAMILTON APT PTCLDY    27  12  53 S13       30.25F WCI  16
* LIBBY APT    CLEAR     18  14  84 CALM      30.28S
* LINCOLN      N/A       25   7  46 S5G12      N/A   WCI  19
* LOOKOUT PASS N/A       21   7  55 N/A        N/A
* POLSON       N/A       24  10  55 SE1        N/A
* RONAN APT    PTCLDY    23  18  81 N/A        N/A
* SEELEY LAKE  N/A        5   0  80 NE1        N/A
* THOMP F APT  PTCLDY    15   6  67 NE3        N/A
* YAAK HILL    N/A       22  14  71 N1         N/A
$$

MTZ008-052>055-051200-
SOUTHWEST MONTANA
CITY           SKY/WX    TMP DP  RH WIND       PRES   REMARKS
BOZEMAN        CLEAR     14   9  80 CALM      30.18R
DILLON         PTCLDY    25   9  50 S12       30.17S WCI  14
* W YELLOWSTON PTCLDY   N/A N/A N/A N/A        N/A
* THREE FORKS  CLEAR     10   3  73 N/A        N/A
* BOULDER HILL N/A       27   3  35 S4G9       N/A
* MONIDA PASS  N/A       12   5  73 SE12       N/A   WCI  -2
* RAYNOLDS PAS N/A        7 -10  45 SE18       N/A   WCI -12
* WHITEHALL    N/A       29   7  39 W8G15      N/A   WCI  21
* WISE RIVER   N/A       25   5  42 W5G19      N/A   WCI  19
$$

MTZ009>010-012-014-046-048-049-054-051200-
EAST SLOPES AND CENTRAL MONTANA
CITY           SKY/WX    TMP DP  RH WIND       PRES   REMARKS
CUT BANK       CLEAR     30  10  43 W22G30    30.02S WCI  17
GREAT FALLS    PTCLDY    28  12  51 SW14      30.06S WCI  17
HELENA         CLEAR     32   7  35 W8        30.16R WCI  25
MALMSTROM AFB  MOCLDY    27  16  63 SW15      30.07F WCI  15
* CONRAD       PTCLDY    32  16  52 CALM       N/A
* DEARBORN     N/A       23  14  68 S6         N/A   WCI  16
* EAST GLACIER N/A       27   8  44 W28G37     N/A   WCI  11
* MONARCH      N/A       24   3  40 SW10       N/A   WCI  14
* PENDROY      N/A       30  13  49 W14G19     N/A   WCI  19
* ROGERS PASS  N/A       23   6  48 SE16G24    N/A   WCI  10
* SWEET GRASS  N/A       27  12  53 W18        N/A   WCI  14
* WHITE SULPH  N/A       22   7  52 SE3G9      N/A
$$

MTZ011-013-016-021-035-040-045-047-050-051-051200-
NORTH CENTRAL MONTANA
CITY           SKY/WX    TMP DP  RH WIND       PRES   REMARKS
HAVRE          PTCLDY    25  14  63 SW15      30.04R WCI  13
LEWISTOWN      MOCLDY    28  14  56 SW16      30.04S WCI  16
* N BAR RANCH  PTCLDY    30  10  43 W12G17    30.00F WCI  20
* CHINOOK      PTCLDY    25  12  58 W7        30.03R WCI  17
* FORT BENTON  PTCLDY    30  14  51 SW8       30.08R WCI  22
* MALTA APT    CLEAR     10   1  67 N/A        N/A
* CHESTER      N/A       28  11  49 W7G13      N/A   WCI  21
* DENTON       N/A       25  14  63 SW9        N/A   WCI  16
* GEYSER       N/A       29  10  45 VRB4       N/A
* JUDITH GAP   N/A       25  10  53 S1         N/A
* LOMA         N/A       29  14  53 W9         N/A   WCI  21
$$

MTZ017>020-022>027-061-062-051200-
NORTHEAST MONTANA
CITY           SKY/WX    TMP DP  RH WIND       PRES   REMARKS
GLASGOW        PTCLDY    10   1  67 SE3       30.01S
GLENDIVE       CLOUDY    10   1  67 S8        30.05F WCI  -2
JORDAN         PTCLDY    19  10  68 W8        30.00F WCI   9
SIDNEY         PTCLDY     3   0  87 S6        30.10F WCI  -8
WOLF POINT     PTCLDY     9   0  66 E6        30.04F WCI  -1
* BEAVER HILL  N/A       13   2  61 S11        N/A
* CIRCLE       N/A       19   8  62 S5         N/A   WCI  12
* LINDSAY DVD  N/A       15   5  64 SE8        N/A   WCI   4
* NAVAJO       N/A        8  -4  58 E4G9       N/A
* PLENTYWOOD A PTCLDY     1  -8  65 E7        30.02F WCI -12
* POPLAR APT   PTCLDY     7   1  76 S3        30.04F
* SACO         N/A        7   1  76 N/A        N/A
* SCOBEY APT   CLEAR      3  -9  57 N/A        N/A
$$

MTZ028>042-056>058-051200-
SOUTHCENTRAL AND SOUTHEAST MONTANA
CITY           SKY/WX    TMP DP  RH WIND       PRES   REMARKS
BAKER          CLEAR      3  -2  79 E5        30.06F WCI  -7
BILLINGS       CLOUDY    23   5  46 SW17      30.07F WCI   9
LIVINGSTON     PTCLDY    30   9  41 W26G35    30.10R WCI  16
MILES CITY     CLOUDY    12   3  67 N/A       30.06F
* BIG TIMBER A MOCLDY    34   7  32 SW31G39   30.05R WCI  20
* FORSYTH APT  MOCLDY    18   9  68 CALM      30.07F
* LAUREL APT   CLOUDY    23   1  38 S6         N/A   WCI  16
* ROUNDUP APT  CLOUDY    25   5  42 N/A        N/A
* ALZADA       N/A        8  -1  66 W1         N/A
* HYSHAM       N/A       20   3  47 W11        N/A   WCI   8
* REED POINT   N/A       22   8  55 E7G12      N/A   WCI  13
* ROSCOE HILL  N/A       21   2  43 SE12       N/A   WCI   9
$$

REGIONAL REPORTS...DAKOTAS
CITY           SKY/WX    TMP DP  RH WIND       PRES   REMARKS
WILLISTON      PTCLDY   N/A N/A N/A N/A       30.10F
DICKINSON      PTCLDY     3  -4  72 S14       30.06F WCI -15
BEACH          MOCLDY     5   1  83 S5        30.06F WCI  -5
CROSBY         CLEAR     -2 -11  65 S17       30.06F WCI -23
TIOGA          CLEAR    -13 -18  78 E5        30.11F WCI -26
WATFORD CITY   CLEAR     -6 -11  78 CALM      30.08F
BISMARCK       PTCLDY    -6 -11  78 E5        30.25F WCI -18
GRAND FORKS    PTCLDY   -11 -18  70 S8        30.36F WCI -28
FARGO          PTCLDY    -9 -17  67 S7        30.40F WCI -24
BUFFALO SD     PTCLDY     3  -6  66 S6        30.02F WCI  -8
RAPID CITY     CLEAR      1  -2  87 CALM      30.14F
$$

REGIONAL REPORTS...WYOMING/IDAHO/WASHINGTON
CITY           SKY/WX    TMP DP  RH WIND       PRES   REMARKS
GILLETTE       PTCLDY    21   1  41 SW16      30.05F WCI   7
SHERIDAN       PTCLDY     3  -6  66 CALM      30.07S
CODY           PTCLDY    12   7  80 NE7       30.06S WCI   1
YELLOWSTONE LA PTCLDY    -9 -13  82 NW3       30.22R
SALMON         PTCLDY    16  10  77 CALM      30.31S
MULLAN PASS    PTCLDY    25   0  33 SW8       30.16S WCI  16
SAND POINT     CLEAR     21  21 100 CALM      30.29F
SPOKANE        MOCLDY    27  18  69 NE3       30.26S
$$

REGIONAL REPORTS...ALBERTA
CITY           SKY/WX    TMP DP  RH WIND       PRES   REMARKS
CALGARY        FAIR      23   9  55 N6        29.96F WCI  16
LETHBRIDGE     CLEAR     30  12  47 W16G22    30.01F WCI  19
MEDICINE HAT   CLEAR     18  14  84 SW10      30.01S WCI   6
EDMONTON       FAIR      18   7  62 SW7       29.91F WCI   9
WATERTON GATE  N/A       30   9  41 SW25G39    N/A   WCI  16
CARDSTON       N/A       30  12  47 W9         N/A   WCI  22
MILK RIVER     N/A       21  14  74 NW13       N/A   WCI   8
$$

REGIONAL REPORTS...SASKATCHEWAN
CITY           SKY/WX    TMP DP  RH WIND       PRES   REMARKS
SWIFT CURRENT  CLEAR     10   3  73 SW13      29.93S WCI  -5
MOOSE JAW      FAIR      -8 -15  71 CALM      29.99F
REGINA         N/A      -13 -18  78 E13       30.02F WCI -35
VAL MARIE      N/A        3   0  87 SW2        N/A
ASSINIBOIA     N/A        5  -2  72 S5         N/A   WCI  -5
CORONACH       N/A        7  -2  66 SE5        N/A   WCI  -2

$$



USA.gov is the U.S. government's official web portal to all federal, state and local government web resources and services.